Location: Gönnheim
(49.4488°N, 8.2383°E)
Time: 20:41:20
(UTC+00:00)

ISS - Pass Details

Date: 19 May 2025
Orbit: 415 x 417 km, 51.6° (Epoch: 20 June)

Event Time Altitude Azimuth Distance (km) Brightness Sun altitude
Rises 20:14:56 0° 284° (WNW) 2,360 1.2 -9.0°
Reaches altitude 10° 20:17:03 10° 287° (WNW) 1,495 0.1 -9.2°
Maximum altitude 20:20:23 67° 11° (N) 457 -3.4 -9.6°
Drops below altitude 10° 20:23:43 10° 95° (E) 1,491 -1.4 -10.0°
Enters shadow 20:24:01 - 95° (E) 1,608 -1.2 -10.0°
